Other Public Products
Issued by NWS Grand Forks, ND

Home | Current Version | Previous Version | Graphics & Text | Print | Product List | Glossary On
Versions: 1 2 3 4 5 6 7 8 9 10 11 12 13 14 15 16 17 18 19 20 21 22 23 24 25 26 27 28 29 30 31 32 33 34 35 36 37 38 39 40 41 42 43 44 45 46 47 48 49 50
430
FPUS83 KFGF 250110
OPUFGF
PRAIRIE TO PINES WEATHER ROUNDUP
NATIONAL WEATHER SERVICE EASTERN NORTH DAKOTA/GRAND FORKS ND
800 PM CDT SAT JUN 24 2017

 **SATELLITE DATA USED TO AUGMENT SKY COVER AT AUTOMATED STATIONS**
 *****  WEATHER ACROSS EASTERN NORTH DAKOTA  *****

CITY           SKY/WX    TMP DP  RH WIND       PRES   REMARKS
GRAND FORKS    LGT RAIN  51  50  96 N14       30.14R FOG
GRAND FORKS AF CLOUDY    51  46  80 N17G24    30.15S
GRAND CITY NWS NOT AVBL
BUXTON         NOT AVBL
DEVILS LAKE    CLOUDY    56  43  61 N15       30.20R
FARGO          CLOUDY    56  47  71 N24G32    30.13R
WAHPETON ARPT  CLOUDY    55  46  71 NW9       30.13R
$$

 *****  WEATHER ACROSS CENTRAL AND WESTERN NORTH DAKOTA  *****

CITY           SKY/WX    TMP DP  RH WIND       PRES   REMARKS
JAMESTOWN      CLOUDY    55  45  68 NW21G30   30.19R
BISMARCK       FAIR      62  38  40 N15G25    30.25R
MINOT          FAIR      61  37  41 NW17      30.24S
MINOT AFB      FAIR      61  36  39 NW17      30.22F
GARRISON         N/A     58  38  47 N14       30.25R
WILLISTON      FAIR      69  33  26 N10       30.27F
DICKINSON      FAIR      61  29  29 N14       30.27S
HETTINGER      FAIR      64  30  27 N15G24    30.29R
$$

 *****  OTHER OBSERVATIONS NORTHEAST NORTH DAKOTA  *****

CITY           SKY/WX    TMP DP  RH WIND       PRES   REMARKS
WALHALLA       NOT AVBL
LANGDON        FAIR      54  46  76 N16       30.18S
CAVALIER       NOT AVBL
GRAFTON        FAIR      54  45  71 NW17G24   30.16S
CANDO          NOT AVBL
FORT TOTTEN      N/A     54  43  66 N5        29.95S
ROLLA            N/A     54  46  76 NW18      30.22R
RUGBY          NOT AVBL
 ***** THE ABOVE OBSERVATIONS ARE NON NWS ARE NOT QUALITY
        CONTROLLED AND MAY MIS-REPORT RAIN FOR SNOW...
$$

 *****  OTHER OBSERVATIONS SOUTHEAST NORTH DAKOTA *****

CITY           SKY/WX    TMP DP  RH WIND       PRES   REMARKS
COOPERSTOWN    MOCLDY    54  43  66 N20G25    30.19R
VALLEY CITY    CLOUDY    54  43  66 N17G26    30.19R
OAKES          NOT AVBL
GWINNER        CLOUDY    57  46  67 NW18G25   30.17R
SHEYENNE NWR     N/A     58  42  56 NW16      29.95S
BUFFALO        NOT AVBL
WYNDMERE       NOT AVBL
 ***** THE ABOVE OBSERVATIONS ARE NON NWS ARE NOT QUALITY
       CONTROLLED AND MAY MIS-REPORT RAIN FOR SNOW...
$$

  *****  WEATHER ACROSS NORTHERN MINNESOTA  *****

CITY           SKY/WX    TMP DP  RH WIND       PRES   REMARKS
FLAG ISLAND    HVY RAIN  55  52  88 NW15      30.04R
WARROAD        RAIN      54  50  87 NW12G20   30.05R
ROSEAU         LGT RAIN  54  48  82 N15       30.06R
HALLOCK        CLOUDY    54  48  82 N9        30.12S
THF RVR FALLS  LGT RAIN  52  49  89 NW22G28   30.09R
HALSTAD        NOT AVBL
FOSSTON        CLOUDY    50  48  93 NW13G18   30.08R FOG
BAUDETTE       CLOUDY    59  52  77 NW8       30.01R
WASKISH        CLOUDY    61  48  63 NW9       30.01R
CROOKSTON      LGT RAIN  50  50 100 N21G26    30.12R
$$
  *****  WEATHER ACROSS CENTRAL AND WEST MINNESOTA  *****

CITY           SKY/WX    TMP DP  RH WIND       PRES   REMARKS
BEMIDJI        RAIN      53  52  96 W13       30.03R
PARK RAPIDS    CLOUDY    54  47  77 NW21      30.05R
WADENA         CLOUDY    54  50  87 NW13G18   30.07R
DETROIT LAKES  PTSUNNY   52  48  87 NW15G23   30.11R
MOORHEAD       CLOUDY    55  46  71 NW17G30   30.14R
FERGUS FALLS   CLOUDY    57  48  72 N17G24    30.09R
ELBOW LAKE     CLOUDY    55  51  84 W14G22    30.11S
MORRIS MN      PTSUNNY   61  46  59 NW16G23   30.11R
STAPLES        RAIN      54  52  94 W9        30.06R
WHEATON        CLOUDY    57  46  67 W16G28    30.15R
$$
  *****  WEATHER ELSEWHERE ACROSS MINNESOTA  *****

CITY           SKY/WX    TMP DP  RH WIND       PRES   REMARKS
DULUTH         MOCLDY    56  47  71 NW7       29.96S
INTRNTL FALLS  LGT RAIN  57  52  83 N8        29.99R
ELY            CLOUDY    55  50  82 N5        29.96S
CLOQUET        MOCLDY    59  46  63 CALM      29.98S
BRAINERD       FAIR      60  46  59 NW14      30.03R
HIBBING        CLOUDY    57  51  80 W5        29.97S
ALEXANDRIA     CLOUDY    55  50  83 NW13      30.10R
SAINT CLOUD    FAIR      60  48  64 W14       30.05R
MINNEAPOLIS    FAIR      63  45  51 NW10      30.04R
$$

  *****  WEATHER ACROSS SOUTH DAKOTA  *****

CITY           SKY/WX    TMP DP  RH WIND       PRES   REMARKS
SIOUX FALLS    FAIR      66  42  41 NW17G24   30.14R
BROOKINGS      FAIR      62  41  46 NW18      30.16R
WATERTOWN      CLOUDY    58  43  57 NW22G28   30.16R
HURON          FAIR      64  41  42 N20       30.18R
SISSETON         N/A     60  46  59 NW23G30   30.14R
ABERDEEN       CLOUDY    60  44  55 NW18G25   30.20R
MITCHELL       FAIR      68  38  33 N16G26    30.17R
PIERRE         FAIR      67  37  33 N18       30.20R
MOBRIDGE       FAIR      66  37  34 N14G22    30.21R
RAPID CITY     FAIR      72  29  20 N14G28    30.26R
$$

  *****  SOME WEATHER IN NEARBY STATES *****

CITY           SKY/WX    TMP DP  RH WIND       PRES   REMARKS
GLASGOW MT     FAIR      71  32  23 W6        30.26F
GREAT FALLS MT FAIR      68  36  30 NE12      30.28F
CHEYENNE WY    CLOUDY    65  36  34 E9        30.34R
SCOTTSBLUFF NE FAIR      70  38  31 NE12      30.26R
OMAHA NE       FAIR      74  44  34 NW8       30.11R
DES MOINES IA  FAIR      75  38  26 NW18G25   30.07R
DAVENPORT IA   FAIR      67  47  48 W7        30.04S
CHICAGO IL     FAIR      70  40  33 NW16      30.02R
EAU CLAIRE WI  CLOUDY    58  46  64 W7        30.00R
LA CROSSE WI   FAIR      60  50  69 SW6       30.03S
$$

  *****  SOME NATIONAL WEATHER *****

CITY           SKY/WX    TMP DP  RH WIND       PRES   REMARKS
LA GUARDIA NY  FAIR      84  57  39 SW12      29.82S
RALEIGH NC     MOCLDY    73  71  93 S3        29.98R
ATLANTA GA     MOCLDY    77  75  93 S6        30.04R
NEW ORLEANS LA MOCLDY    77  75  93 SW6       30.06R
OKLAHOMA CITY  MOCLDY    80  52  37 E9        30.15R
ALBUQUERQUE NM PTSUNNY   88  49  25 S22G33    30.12R
SALT LAKE CITY FAIR      88  18   7 NW9       30.12F
LOS ANGELES CA FAIR      68  61  78 W12       29.85F
BOISE ID       FAIR      88  34  14 W10       30.08F
SEATTLE WA     FAIR      89  53  29 N10       30.02F
$$

*** WEATHER ACROSS MANITOBA...SASKATCHEWAN AND ONTARIO ***
                ***ONTARIO***

CITY           SKY/WX    TMP DP  RH WIND       PRES   REMARKS
GERALDTON      MOCLDY    64  41  42 NE7       29.90R
THUNDER BAY    MOCLDY    61  50  67 N5        29.91R
SIOUX LOOKOUT  PTSUNNY   54  52  94 VRB2      29.98S
TORONTO        MOCLDY    68  52  56 W8        29.87R
BIG TROUT LK   MOSUNNY   55  36  47 N7        30.03S
PICKLE LAKE    MOCLDY    55  43  62 N14       30.01R
DRYDEN         RAIN      52  52 100 N6        30.00S
KENORA         LGT RAIN  54  48  82 N10G17    30.05R
$$
                *** MANITOBA***

CITY           SKY/WX    TMP DP  RH WIND       PRES   REMARKS
BRANDON        MOSUNNY   57  45  62 N8        30.20S
DAUPHIN        MOSUNNY   59  41  51 NW12      30.20S
ISLAND LAKE    PTSUNNY   57  39  51 NW5       30.09F
PILOT MOUND      N/A     55  43  62 N10         N/A
THE PAS        CLOUDY    57  41  54 VRB2      30.19S
THOMPSON       MOSUNNY   63  27  25 N12G17    30.10F
WINNIPEG       LGT RAIN  52  48  87 NW8       30.14R
LYNN LAKE      CLOUDY    61  34  36 N8        30.16S
CHURCHILL      PTSUNNY   61  34  36 SW5       30.03F
GILLAM         MOSUNNY   61  37  41 N12       30.07S
$$
                ***SASKATCHEWAN***

CITY           SKY/WX    TMP DP  RH WIND       PRES   REMARKS
ESTEVAN        MOSUNNY   63  39  42 NW12      30.24F
KINDERSLEY     TSTM      57  48  72 NE20G26   30.25R
LLOYDMINSTER   TSTM      54  50  87 NE9G18    30.28R
PRINCE ALBERT  MOSUNNY   64  41  42 NE9       30.22S
REGINA         LGT RAIN  61  43  51 NW10      30.24R
YORKTON        MOSUNNY   59  43  55 N6        30.21F



USA.gov is the U.S. government's official web portal to all federal, state and local government web resources and services.